Погода в Белогорке

Погода в Белогорке : погода сейчас, прогноз погоды и архив. Всё, что Вы хотите узнать о погоде в Белогорке!

Хотите узнать прогноз погоды в Белогорке? Тогда Вам сюда: Погода в Белогорке

Поиск расширенной информации на нашем сайте:

Другие новости

Новости СМИ2

Главная страница сайта

Новости сайта

03.07.2017

Напоминаем, что на нашем специализированном сайте Метеоцентр.Азия вы можете получить высокодетализированные автоматические прогнозы погоды по пунктам России, СНГ и мира в авиационном формате (включающие направление и скорость ветра, видимость, явления погоды, количество и форму облачности, нижнюю и верхнюю границу облачности).


Погода в Белогорке - сегодня

Время (UTC), дата Ветер
(°,м/с) 
Видим.   Явления Облачность Т
(°С)
Тd
(°С)
f(%) Тe
(°С)
Pmin
(гПа)
dP
(гПа)
Po
(мм)
O2
(г/м3)
Тmin Tmax R s Состояние
почвы
09 19.09.17 300 (СЗ) 10 км  {ливн. осадки}  9/9 540 м кучево-дожд. 
[Cb cap]
+9.4 +8.1 92 +9  1002.7  744  288           
12 19.09.17 270 (З) 10 км  в посл. час ливневой дождь  9/9 540 м кучево-дожд. 
[Cb cap]
+9.3 +8.2 93 +9  1007.2  4.5  747  290           
15 19.09.17 220 (ЮЗ) 10 км    9/9 540 м кучево-дожд. 
[Cb cap]
+10.2 +8.4 89 +10  1010  2.8  749  290         
18 19.09.17 200 (Ю) 20000 м    9/5 600 м средняя 
[Sc|Ac trans]
+8.8 +8.3 97 +9  1012  2.8  751  292    +10.3  0.6     
21 19.09.17 тихо ()   20000 м    10/10 330 м 
[St]
+6.7 +6.5 99 +7  1013.8  1.7  752  295           
00 20.09.17 тихо ()   1000 м  дымка  10/10 240 м 
[St]
+7.3 +7.2 99 +7  1014.9  1.1  753  294           
03 20.09.17 050 (СВ) 1000 м  дымка{дождь}  10/10 300 м 
[St]
+8.6 +8.5 99 +10  1015.8  754  293  +5.7    0.7     
06 20.09.17 тихо ()   10 км  {дождь}  10/10 330 м 
[St]
+9.5 +9.4 99 +10  1017.9  2.1  755  292  +5.7      влажная 
09 20.09.17 230 (ЮЗ) 10 км    8/8 420 м кучево-дожд. 
[Cb cap]
+12.4 +9.2 81 +13  1019.5  1.8  757  290           
12 20.09.17 170 (Ю) 10 км    9/9 450 м кучево-дожд. 
[Cb cap]
+14.1 +9.6 74 +15  1021  1.5  758  289           
15 20.09.17 170 (Ю) 10 км    8/8 450 м кучево-дожд. 
[Cb cap]
+13.6 +9.8 78 +16  1021.7  0.8  758  289      0.3     
18 20.09.17 150 (ЮВ) 20000 м    4/3 600 м верхняя 
[Sc|Ci fib]
+9.2 +8.5 95 +9  1023.7  1.8  760  295    +15.3       
21 20.09.17 тихо ()   20000 м    5/0 средняя, верхняя 
[Ac trans|Ci fib]
+4.3 +4.1 99 +4  1025.5  1.5  761  301           
00 21.09.17 тихо ()   20000 м    5/0 средняя, верхняя 
[Ac trans|Ci fib]
+4 +3.9 99 +4  1026.9  1.4  762  302           
03 21.09.17 тихо ()   1000 м  дымка  9/0 средняя 
[Ac trans]
+5.5 +5.4 99 +6  1027.7  0.8  762  300  +3.9         
06 21.09.17 050 (СВ) 10 км    6/0 средняя, верхняя 
[Ac trans|Ci fib]
+9.1 +9 99 +9  1028.3  0.7  763  296  +3.9        влажная 
09 21.09.17 090 (В) 10 км    9/0 верхняя 
[Ci fib]
+15.6 +10.3 71 +17  1028.2  0.2  763  289           
12 21.09.17 070 (В) 10 км    6/3 600 м верхняя 
[Cu hum|Ci fib]
+16.6 +9.7 64 +17  1028.4  0.3  763  288           
15 21.09.17 060 (СВ) 10 км    9/0 средняя 
[Ac trans]
+14.2 +9.3 72 +15  1028  -0.4  763  291           
18 21.09.17 060 (СВ) 20000 м    4/3 600 м верхняя 
[Sc|Ci fib]
+10.6 +8.4 86 +11  1029.3  764  295    +17.3       
21 21.09.17 080 (В) 20000 м    9/0 средняя 
[Ac trans]
+10.4 +8.4 87 +11  1029.4  0.1  764  295           
00 22.09.17 080 (В) 20000 м  {дождь}  9/0 средняя 
[Ac As]
+9.2 +7.9 92 +9  1029.7  0.2  764  296           
03 22.09.17 080 (В) 20000 м  {дождь}  9/4 600 м верхняя 
[Sc|Ci fib]
+8.8 +7.8 93 +8  1029.5  -0.2  764  297  +8.5    0.6     
06 22.09.17 100 (В) 10 км  {дождь}  9/3 600 м средняя, верхняя 
[Sc|Ac trans|Cs]
+10.5 +8.4 87 +11  1028.8  -0.6  763  295  +8.5    0.6    влажная 
09 22.09.17 100 (В) 3{10}  10 км    9/4 600 м средняя 
[Sc|Ac As]
+13.7 +8.1 69 +14  1028.3  -0.4  763  291           
Время (UTC), дата Ветер
(°,м/с) 
Видим.   Явления Облачность Т
(°С)
Тd
(°С)
f(%) Тe
(°С)
Pmin
(гПа)
dP
(гПа)
Po
(мм)
O2
(г/м3)
Тmin Tmax R s Состояние
почвы

Для получения пояснительной информации подведите курсор к названию столбца.

ПОГОДА в Белогорке - архив

Всё, что Вы хотите узнать о погоде в Белогорке - удобно и подробно!

Выберите нужную дату (начиная с 1 января 2015* года) и нажмите кнопку "Найти".
Будут отображены архивные сводки погоды по пункту Белогорка, начиная с указанной даты.


Отображать данные в формате CSV (для использования в таблицах Excel)


Внимание! Наш архив погоды предназначен исключительно для личного некоммерческого использования в познавательных целях. Если Вам необходимы официальные справки о состоянии погоды (для производственных, юридических, коммерческих и т.п. целей), обращайтесь в органы Росгидромета.

*Примечание: данная дата относится к архиву по метеостанциям СССР (Россия, СНГ, Балтия).
Архив по метеостанциям Зарубежной Европы и Азии (кроме Китая) хранится 10 дней, по другим регионам земного шара (Китай, Африка, Америка, Австралия, Океания) - 1 день.

Белогорка - район местоположения метеостанции


Название, широта, долгота, высота метеостанции:
Белогорка 59.3°ш. 30.1°д. 90 м над ур. моря [Российская Федерация]

Дополнительная информация

В oтличие oт бoльшинства пoгoдных сайтoв мы публикуем пoдрoбную метеoинфoрмацию в детальнoм прoфессиoнальнoм фoрмате.

Характеристики температуры и влажнoсти вoздуха измеряются на высoте 2 м в тени вдали oт зданий и деревьев.
Скoрoсть ветра измеряется на высoте 10 м (на урoвне рoста челoвека скoрoсть ветра ниже в 1.5-2 раза). Если метеoстанция нахoдится в гoрoде или в лесу, тo скoрoсть ветра занижена на 2-4 м/с пo сравнению с oткрытым местoм. Скoрoсть ветра над акватoриями крупных рек и oзёр, а также на вершинах хoлмoв на 2-5 м/с выше, чем в oбычных услoвиях.
Атмoсфернoе давление в разных тoчках местнoсти мoжет значительнo oтличаться oт давления на метеoстанции, в зависимoсти oт услoвий рельефа (при пoдъёме на 10 м давление пoнижается примернo на 1 мм рт.ст.).